This is the latest recevied weather packets stored in our database for station/object WX1N. If no packets are shown the sender has not sent any weather packets the latest 10 day(s).
| Time | Temp. | Humidity | Pressure | Rain* | Wind** | Luminosity | Snow |
|---|---|---|---|---|---|---|---|
| 1777773602 | 6.11° C | 78% | 1010.6 hPa | 0 mm | - | - | - |
| 1777773303 | 6.67° C | 76% | 1010.7 hPa | 0 mm | - | - | - |
| 1777773002 | 6.67° C | 75% | 1010.6 hPa | 0 mm | - | - | - |
| 1777772704 | 6.67° C | 74% | 1010.6 hPa | 0 mm | - | - | - |
| 1777772403 | 6.67° C | 75% | 1010.6 hPa | 0 mm | - | - | - |
| 1777772102 | 6.67° C | 74% | 1010.6 hPa | 0 mm | - | - | - |
| 1777771803 | 6.67° C | 74% | 1010.6 hPa | 0 mm | - | - | - |
| 1777771503 | 6.67° C | 75% | 1010.6 hPa | 0 mm | - | - | - |
| 1777771202 | 7.22° C | 74% | 1010.6 hPa | 0 mm | - | - | - |
| 1777770903 | 7.22° C | 74% | 1010.6 hPa | 0 mm | - | - | - |
| 1777770603 | 7.22° C | 73% | 1010.5 hPa | 0 mm | - | - | - |
| 1777770302 | 7.78° C | 75% | 1010.5 hPa | 0 mm | - | - | - |
| 1777770003 | 7.78° C | 74% | 1010.4 hPa | 0 mm | - | - | - |
| 1777769702 | 7.78° C | 73% | 1010.3 hPa | 0 mm | - | - | - |
| 1777769403 | 8.33° C | 72% | 1010.3 hPa | 0 mm | - | - | - |
| 1777769103 | 8.33° C | 71% | 1010.3 hPa | 0 mm | - | - | - |
| 1777768803 | 8.33° C | 71% | 1010.3 hPa | 0 mm | - | - | - |
| 1777768503 | 8.89° C | 71% | 1010.2 hPa | 0 mm | - | - | - |
| 1777768203 | 8.89° C | 70% | 1010.1 hPa | 0 mm | - | - | - |
| 1777767903 | 8.89° C | 70% | 1010.1 hPa | 0 mm | - | - | - |
| 1777767603 | 8.89° C | 69% | 1009.9 hPa | 0 mm | - | - | - |
| 1777767302 | 9.44° C | 70% | 1009.8 hPa | 0 mm | - | - | - |
| 1777767003 | 9.44° C | 70% | 1009.7 hPa | 0 mm | - | - | - |
| 1777766703 | 9.44° C | 71% | 1009.6 hPa | 0 mm | - | - | - |
| 1777766402 | 8.89° C | 76% | 1009.5 hPa | 0 mm | - | - | - |
* Rain latest hour (hover to see other rain measurements)
** Current wind speed in m/s (hover to see current wind gust speed)